Location: Cutin
(45.8000°N, 22.7667°E)
Time: 13:40:32
(UTC+00:00)

Daily predictions for brighter satellites

Satellite Brightness Start Highest point End
(mag) Time Altitude Azimuth Time Altitude Azimuth Time Altitude Azimuth
Cosmos 2344 3.5 17:45:54 10° SSW 17:53:20 66° ESE 18:01:01 10° NE
FALCON 9 DEB 3.6 17:51:06 10° WSW 17:54:29 62° NNW 17:57:54 10° NE
Cosmos 2026 Rocket 4.0 17:48:42 10° N 17:54:45 61° ENE 18:00:48 10° SSE
USA 215 4.4 17:49:33 10° ENE 17:55:26 37° NNE 18:01:19 10° NW
Cosmos 1980 4.3 17:50:58 10° NNW 17:56:22 42° NE 18:01:43 10° SE
SL-16 R/B 3.9 17:52:31 10° N 17:56:24 18° NE 18:00:16 10° E
Cosmos 2360 Rocket 4.2 17:51:49 10° NW 17:56:39 29° WSW 18:01:25 10° SSW
SAR-Lupe-1 4.3 17:56:15 10° N 17:59:50 75° WNW 18:03:24 10° SSW
Cosmos 1726 Rocket 4.2 17:55:36 10° SSW 17:59:55 63° W 18:04:15 10° N
Cosmos 1992 Rocket 4.3 17:58:54 10° NNW 18:04:06 71° WSW 18:09:17 10° S
COSMOS 2455 4.4 18:01:07 10° SE 18:04:07 14° ESE 18:07:08 10° ENE
Cosmos 2151 4.5 18:00:56 10° NNE 18:04:14 21° ENE 18:07:29 10° ESE
Meteor 2-10 Rocket 4.1 18:00:40 10° SSW 18:05:55 68° WNW 18:11:28 10° N
IRS-1A Rocket 4.5 18:02:31 10° SE 18:07:58 56° ENE 18:13:33 10° N
BREEZE-M DEB (TANK) 2.6 18:02:49 10° SW 18:08:01 39° SSE 18:10:19 10° E
FALCON 9 DEB 3.9 18:08:19 10° SSW 18:10:53 25° SE 18:13:28 10° E
Cosmos 2219 Rocket 2.9 18:05:43 10° NNW 18:11:17 57° WSW 18:16:49 10° S
Cosmos 1455 2.3 18:07:51 10° SSW 18:11:35 77° W 18:15:20 10° N
SL-4 R/B 2.9 18:10:20 10° SSW 18:14:10 32° SE 18:18:16 10° ENE
COSMOS 2428 3.2 18:09:34 10° NNW 18:15:16 64° WSW 18:20:54 10° S
CZ-4 R/B 4.3 18:14:45 10° SW 18:17:33 17° W 18:20:22 10° NW
Cosmos 1634 Rocket 4.0 18:11:37 10° S 18:17:53 83° E 18:24:09 10° N
Meteor 2-1 Rocket 4.3 18:12:17 10° S 18:18:07 76° E 18:24:04 10° NNE
Cosmos 2292 Rocket 4.4 18:14:02 10° N 18:20:21 52° ENE 18:25:04 10° SSE
Cosmos 1076 Rocket 3.7 18:16:13 10° N 18:20:29 52° ENE 18:24:41 10° SSE
USA 186 2.7 18:18:24 10° S 18:21:35 50° W 18:24:40 10° NNW
Cosmos 44 4.2 18:18:36 10° SW 18:23:41 60° NW 18:29:02 10° NNE
OBJECT-B 1.0 18:21:58 10° S 18:25:11 73° W 18:28:26 10° NNW
Cosmos 407 Rocket 3.8 18:21:00 10° S 18:25:49 43° ESE 18:30:43 10° NNE
ARIANE 5 R/B 4.5 18:26:32 11° E 18:28:46 16° ENE 18:31:27 10° NNE
Meteor 2-3 Rocket 4.4 18:25:59 10° N 18:31:19 38° ENE 18:35:28 15° SE
Cosmos 1356 3.3 18:28:17 10° N 18:31:43 87° ENE 18:35:07 10° S
NOSS 0 Rocket 4.1 18:28:01 10° NNW 18:34:16 79° WSW 18:40:29 10° SSE
Cosmos 2058 Rocket 4.4 18:32:33 10° SSW 18:36:40 42° WNW 18:40:50 10° N
RESURS DK-1 4.2 18:33:43 10° WSW 18:37:31 35° NW 18:41:21 10° NNE
IRIDIUM 114 4.4 18:34:03 10° SSE 18:39:11 62° E 18:44:21 10° N
Cosmos 1140 Rocket 3.6 18:34:21 10° S 18:39:15 49° ESE 18:44:13 10° NNE
Timation 2 Rocket 4.2 18:34:44 10° S 18:41:00 48° ESE 18:47:03 10° NE
Cosmos 909 Rocket 4.3 18:35:10 10° SW 18:41:29 76° NW 18:48:00 10° NNE
Cosmos 405 Rocket 3.0 18:38:15 10° NNW 18:42:13 70° W 18:46:06 10° S
Cosmos 2180 Rocket 4.4 18:38:09 10° S 18:44:13 65° E 18:50:17 10° NNE
Cosmos 1812 Rocket 3.5 18:39:50 10° S 18:44:14 68° E 18:48:42 10° NNE
Cosmos 2237 Rocket 2.2 18:38:41 10° NNW 18:44:21 85° ENE 18:48:57 16° SSE
Meteor 2-21 4.5 18:38:36 10° N 18:44:38 63° ENE 18:49:56 14° SSE
CZ-2C R/B 4.3 18:43:06 10° NNE 18:47:07 33° E 18:49:27 20° SSE
IRIDIUM 103 4.3 18:43:07 10° S 18:48:18 75° E 18:53:32 10° N
Spot 2 Rocket 4.4 18:51:56 21° ESE 18:54:27 32° ENE 18:58:56 10° N
Cosmos 1825 4.2 18:51:34 10° NNW 18:54:49 27° W 18:58:02 10° SSW
Cosmos 2227 Rocket 2.2 18:53:24 10° S 18:58:58 62° ESE 19:04:34 10° NNE
Cosmos 2082 4.3 18:55:36 16° SSE 18:59:14 33° ESE 19:04:13 10° NE
Cosmos 1655 Rocket 4.0 18:54:44 10° N 19:01:03 73° E 19:05:56 17° SSE
Abrixas rocket 3.2 18:59:49 10° WNW 19:00:44 22° NW 19:00:44 22° NW
Cosmos 1809 Rocket 4.5 18:56:01 10° N 19:02:09 83° W 19:08:02 11° S
Cosmos 2297 Rocket 2.1 18:59:58 10° SSW 19:05:37 88° ESE 19:11:19 10° NNE
IRIDIUM 106 4.4 19:01:23 10° S 19:06:35 77° W 19:11:50 10° N
Okean 3 Rocket 4.3 19:02:35 10° N 19:06:50 38° ENE 19:08:15 30° ESE
Cosmos 1633 2.5 19:03:46 10° N 19:07:22 79° W 19:09:14 26° S
FALCON 9 DEB 2.6 19:04:49 10° SW 19:07:53 83° SE 19:09:23 27° ENE
Lacrosse 5 rocket 3.7 19:07:10 10° NW 19:10:17 19° N 19:13:29 10° ENE
Resurs 01 Rocket 1.7 19:08:37 21° S 19:11:36 78° WSW 19:16:06 10° NNW
FALCON 9 DEB 2.9 19:09:34 10° WSW 19:12:35 75° NNW 19:14:19 23° NE
Cosmos 1869 3.8 19:12:29 36° ESE 19:13:01 38° E 19:16:42 10° NNE
Cosmos 2219 3.2 19:09:09 10° SSW 19:14:46 87° WNW 19:20:26 10° NNE
Meteor 1-4 Rocket 3.2 19:16:24 34° ENE 19:16:24 34° ENE 19:19:17 10° NNE
Genesis I 3.3 19:12:13 10° NW 19:16:14 72° SW 19:17:40 38° SSE
BREEZE-M DEB (TANK) 4.4 19:13:36 10° W 19:18:17 69° N 19:37:06 10° E
Cosmos 1763 Rocket 4.2 19:17:58 10° N 19:22:42 38° ENE 19:24:15 30° E
Cosmos 1190 Rocket 4.1 19:18:11 10° SSW 19:23:25 80° WNW 19:28:39 10° NNE
Cosmos 2084 Rocket 3.4 19:19:30 10° SW 19:23:27 76° NW 19:27:31 10° NE
Ariane Rocket 4.4 19:19:18 10° SSW 19:23:53 35° W 19:28:30 10° NNW
FALCON 9 DEB 3.4 19:21:42 10° WSW 19:24:41 57° NNW 19:26:05 27° NE
Terra 3.0 19:24:59 25° E 19:25:57 27° ENE 19:29:57 10° N
NOSS 3-1 (C) 4.5 19:21:03 10° NNW 19:28:08 51° NE 19:32:59 25° ESE
ATLAS 3B R/B 4.4 19:27:00 10° WNW 19:32:42 27° WSW 19:38:35 10° SSW
SPOT 5 3.2 19:34:55 39° E 19:35:48 44° ENE 19:40:24 10° N
SPOT 1/Viking Rocket 3.5 19:33:39 34° SSE 19:36:01 89° WSW 19:41:17 10° NNW
USA 215 3.4 19:34:16 29° ESE 19:37:52 70° NNE 19:44:23 10° NW
Cosmos-2242 3.6 19:35:48 16° SSW 19:39:10 57° WNW 19:43:25 10° N
SL-16 R/B 2.1 19:35:40 10° NNW 19:41:23 86° ENE 19:43:25 42° SSE
Cosmos 2151 4.2 19:37:39 10° NNW 19:41:40 38° W 19:44:09 20° SSW
Cosmos 676 Rocket 3.9 19:37:14 13° SSW 19:41:49 90° ESE 19:47:02 10° NNE
Cosmos 1842 Rocket 4.4 19:43:18 35° ENE 19:43:18 35° ENE 19:46:54 10° NNE
SPOT 3 Rocket 4.4 19:40:39 19° SSW 19:44:03 45° W 19:49:02 10° NNW
FALCON 9 DEB 3.8 19:43:33 10° W 19:46:32 47° NNW 19:46:41 46° NNW
COSMOS 2455 2.7 19:43:06 10° SSW 19:49:06 83° ESE 19:55:10 10° NNE
SL-4 R/B 2.5 19:49:12 10° WSW 19:53:38 68° NNW 19:57:55 12° ENE
ERS-1 Rocket 2.9 19:53:53 55° SE 19:54:52 71° ENE 19:59:53 10° N
BREEZE M DEB (TANK) 4.0 19:52:17 10° SW 19:56:16 76° SSE 20:10:11 10° ENE
Cosmos 1408 Rocket 3.5 19:53:26 10° N 19:57:45 65° E 19:57:46 65° E
Meteor 2-15 Rocket 4.4 19:59:54 48° SE 20:01:19 62° E 20:07:18 10° NNE
Timation 1 Rocket 4.4 19:58:06 10° SSW 20:04:04 78° WNW 20:10:05 10° NNE
Cosmos 2221 2.8 20:05:05 52° NE 20:05:05 52° NE 20:08:40 10° NNE
ARIANE 5 R/B 2.9 20:04:04 53° SW 20:04:45 61° WSW 20:09:07 10° NNW
USA 245 4.2 20:05:50 37° W 20:05:50 37° W 20:08:41 10° NNW
Cosmos 1862 3.7 20:02:30 10° N 20:05:51 55° NNE 20:05:51 55° NNE
Cosmos 1943 4.0 20:01:57 10° NNW 20:07:12 38° NE 20:08:18 35° E
Cosmos 1743 Rocket 4.0 20:12:16 10° N 20:15:53 49° NE 20:15:53 49° NE
TSX-5 4.2 20:18:59 56° WSW 20:19:48 72° WNW 20:23:48 10° NNE
Cosmos 44 Rocket 3.8 20:14:50 10° SW 20:19:52 63° NW 20:25:04 10° NNE
S3M 4.3 20:20:45 46° E 20:21:09 47° E 20:27:14 10° NNE
Nadezhda 2 Rocket 4.5 20:15:02 10° N 20:21:18 79° W 20:22:56 51° S
Cosmos 1741 Rocket 3.8 20:24:56 79° SE 20:25:07 81° ESE 20:30:26 10° NNE
CRYOSAT 2 4.2 20:26:30 87° S 20:26:34 89° W 20:31:30 10° N
Cosmos 1850 Rocket 3.8 20:27:53 81° SSW 20:28:10 89° ESE 20:33:27 10° NNE
Cosmos 2263 Rocket 2.3 20:34:38 56° ENE 20:34:38 56° ENE 20:39:23 10° NNE
Cosmos 1500 Rocket 3.9 20:30:09 10° N 20:33:58 64° N 20:33:58 64° N
Aureole 1 Rocket 3.4 20:35:06 81° E 20:35:06 81° E 20:39:38 10° NNE
SL-08 R/B 4.4 20:30:40 10° N 20:36:53 89° W 20:37:50 67° S
BREEZE M DEB (TANK) 3.7 20:33:10 10° W 20:36:34 32° NW 20:36:34 32° NW
Cosmos 1386 Rocket 4.4 20:31:28 10° N 20:37:29 65° E 20:37:51 63° E
USA 229 DEB 3.9 20:30:17 10° NW 20:37:36 76° NE 20:39:35 53° ESE
USA 229 3.9 20:30:22 10° NW 20:37:42 76° NE 20:39:42 53° ESE
Cosmos 2227 Rocket 4.3 20:38:49 10° WSW 20:43:28 25° NW 20:48:08 10° N
H-2A R/B 4.2 20:41:07 10° N 20:44:42 53° NW 20:44:42 53° NW
Cosmos 1553 Rocket 3.9 20:48:26 63° SW 20:49:25 77° W 20:55:32 10° N
Lacrosse 5 rocket 2.6 20:46:13 10° NW 20:49:59 41° NNE 20:49:59 41° NNE
Cosmos 2208 Rocket 4.2 20:47:13 10° NNW 20:52:16 63° NE 20:52:16 63° NE
NOSS 3-1 (A) 4.0 20:48:05 10° NW 20:55:38 86° NE 20:57:36 58° SE
Cosmos 1603 3.6 20:50:20 10° NNW 20:55:59 87° N 20:55:59 87° N
Cosmos 841 Rocket 3.6 20:51:29 10° NNW 20:56:15 68° WNW 20:56:15 68° WNW
ALOS 2 4.5 20:58:14 22° NE 20:58:14 22° NE 21:00:47 10° NNE
Terra 2.9 21:03:52 37° W 21:03:52 37° W 21:08:00 10° NNW
Meteor 2-17 Rocket 4.4 21:05:29 10° N 21:11:32 71° ENE 21:11:32 71° ENE
Cosmos 540 Rocket 4.2 21:07:27 10° NNW 21:11:41 44° W 21:11:41 44° W
Cosmos 1814 Rocket 4.3 21:07:10 10° NNW 21:11:45 64° NW 21:11:45 64° NW
Cosmos 921 Rocket 4.3 21:09:25 10° NNW 21:12:21 38° NW 21:12:21 38° NW
NOSS 3-1 (C) 4.4 21:11:55 10° NW 21:19:17 52° WSW 21:20:23 49° SW
USA 215 3.9 21:21:36 41° WSW 21:21:36 41° WSW 21:27:15 10° WNW
SL-16 R/B 4.3 21:21:40 10° WNW 21:24:41 15° W 21:25:19 14° WSW
Cosmos 2315 Rocket 3.9 21:31:12 80° NE 21:31:12 80° NE 21:37:19 10° N
SL-4 R/B 3.6 21:29:28 10° WNW 21:33:32 40° NNW 21:33:32 40° NNW
Meteor 1-25 Rocket 4.5 21:31:33 10° NNW 21:36:42 66° NW 21:36:42 66° NW
ATLAS 5 CENTAUR R/B 4.2 21:37:37 10° NNW 21:41:42 22° NNE 21:45:39 12° ENE
Cosmos 1943 4.4 21:46:07 10° NW 21:50:06 33° W 21:50:06 33° W
SeaSat 1 3.2 21:47:27 10° NNE 21:51:19 50° N 21:51:19 50° N
Cosmos 2074 Rocket 4.2 21:50:39 10° N 21:56:30 61° ENE 21:56:30 61° ENE
Iridium 4 Rocket 4.2 21:58:16 52° N 21:58:16 52° N 22:02:23 10° N
USA 281 4.2 21:56:17 33° E 21:57:57 38° NE 22:03:55 10° NNW
Cosmos 1709 Rocket 4.4 21:52:30 10° NNW 21:58:09 52° W 21:58:09 52° W
Cosmos 2263 Rocket 4.0 22:16:15 20° W 22:18:14 25° NW 22:22:48 10° N
Nadezhda 1 Rocket 4.4 22:20:14 56° ENE 22:20:14 56° ENE 22:25:56 10° NNE
Cosmos 968 Rocket 4.4 22:22:53 47° NNW 22:22:53 47° NNW 22:27:07 10° NNE
Meteor 1-11 Rocket 4.3 22:18:27 10° N 22:23:46 55° NE 22:23:46 55° NE
Lacrosse 5 rocket 4.3 22:25:22 10° WNW 22:25:35 11° WNW 22:25:35 11° WNW
Cosmos 1844 Rocket 3.1 22:30:55 57° N 22:30:55 57° N 22:35:26 10° NNE
Thor Agena Rocket 4.2 22:28:34 10° NNE 22:32:22 51° N 22:32:22 51° N
CZ-4C R/B 4.1 22:36:40 10° NNW 22:43:01 37° NE 22:50:23 10° ESE
CZ-2D R/B 4.2 22:48:36 10° NE 22:52:02 17° E 22:52:02 17° E
Cosmos 2082 Rocket 4.0 22:48:53 10° N 22:53:31 25° NE 22:56:13 18° E
SL-16 R/B 4.2 22:51:23 20° E 22:54:06 28° ENE 22:59:15 10° N
Cosmos 1833 Rocket 3.5 22:50:18 10° NNW 22:55:43 44° ENE 22:56:05 44° ENE
Cosmos 2154 Rocket 4.2 22:58:28 10° NNW 23:04:10 61° WNW 23:04:10 61° WNW
SJ 16-02 3.0 23:17:22 30° NE 23:17:22 30° NE 23:19:52 10° NNE
Cosmos 2278 Rocket 2.9 23:19:29 46° E 23:19:29 46° E 23:24:06 10° NE
ATLAS 5 CENTAUR R/B 2.4 23:21:32 10° NW 23:27:06 76° NE 23:27:06 76° NE
Cosmos 2341 Rocket 4.0 23:24:52 10° N 23:31:01 76° WNW 23:31:01 76° WNW
Cosmos 2181 Rocket 3.9 23:31:53 77° ESE 23:31:58 77° E 23:38:13 10° N
SL-8 Rocket 3.9 23:27:16 10° N 23:33:37 88° E 23:33:40 88° ESE
USA 281 3.6 23:43:08 47° W 23:43:08 47° W 23:48:40 10° NW
COSMOS 2406 3.4 23:40:07 10° NNW 23:44:55 64° NW 23:44:55 64° NW
Cosmos 158 Rocket 4.4 23:41:16 10° NNW 23:45:07 54° N 23:45:07 54° N
Helios 1B rocket 3.9 23:44:54 10° NNE 23:47:40 34° NE 23:47:40 34° NE
UNK 4.4 23:52:44 53° ENE 23:52:44 53° ENE 23:56:59 10° N
